Location: Kalberh�ni
(46.4610°N, 7.2453°E)
Time: 06:43:06
(UTC+00:00)

Cosmos 1626 - Pass Details

Date: 20 June 2021
Orbit: 489 x 492 km, 82.5° (Epoch: 28 July)

Event Time Altitude Azimuth Distance (km) Brightness Sun altitude
Exits shadow 21:29:25 - 217° (SW) 2,231 5.2 -14.7°
Reaches altitude 10° 21:30:53 10° 226° (SW) 1,684 4.6 -14.9°
Maximum altitude 21:34:05 28° 286° (WNW) 961 4.0 -15.1°
Drops below altitude 10° 21:37:20 10° 347° (NNW) 1,698 6.1 -15.4°
Sets 21:39:40 0° 360° (N) 2,587 6.9 -15.6°
